• In Russia
  • List of Countries
  • For 7 days
  • Water Temperature
  • Satellite Maps
  • Weather Map
  • Weather Widgets
  • user-avatar
    Login

    Hourly Weather Lankaran

    Today, 23 April, Sunday

    Time Temperature Precipitation Wind Pressure Humidity
    00:00 +8°C° 0 mm 1 mps 636 mmHg 75%
    01:00 +8°C° 0 mm 1 mps 636 mmHg 76%
    02:00 +8°C° 0 mm 1 mps 635 mmHg 77%
    03:00 +6°C° 0 mm 2 mps 635 mmHg 85%
    04:00 +7°C° 0 mm 2 mps 635 mmHg 82%
    05:00 +7°C° 0 mm 2 mps 635 mmHg 79%
    06:00 +8°C° 0 mm 2 mps 635 mmHg 76%
    07:00 +10°C° 0 mm 2 mps 635 mmHg 66%
    08:00 +13°C° 0 mm 3 mps 636 mmHg 57%
    09:00 +16°C° 0 mm 3 mps 636 mmHg 48%
    10:00 +18°C° 0 mm 4 mps 636 mmHg 43%
    11:00 +20°C° 0 mm 4 mps 635 mmHg 38%
    12:00 +21°C° 0 mm 5 mps 635 mmHg 34%
    13:00 +22°C° 0 mm 5 mps 634 mmHg 33%
    14:00 +22°C° 0 mm 5 mps 633 mmHg 32%
    15:00 +22°C° 0 mm 5 mps 632 mmHg 31%
    16:00 +21°C° 0 mm 5 mps 632 mmHg 35%
    17:00 +20°C° 0 mm 4 mps 631 mmHg 38%
    18:00 +18°C° 0 mm 3 mps 630 mmHg 42%
    19:00 +18°C° 0 mm 4 mps 630 mmHg 40%
    20:00 +17°C° 0 mm 4 mps 630 mmHg 39%
    21:00 +16°C° 0 mm 5 mps 629 mmHg 37%
    22:00 +15°C° 0.2 mm 5 mps 629 mmHg 41%
    23:00 +15°C° 0.2 mm 5 mps 629 mmHg 44%

    Tomorrow, 24 April, Monday

    Time Temperature Precipitation Wind Pressure Humidity
    00:00 +14°C° 0.2 mm 5 mps 628 mmHg 48%
    01:00 +14°C° 0 mm 5 mps 628 mmHg 47%
    02:00 +13°C° 0 mm 5 mps 628 mmHg 46%
    03:00 +13°C° 0 mm 5 mps 628 mmHg 45%
    04:00 +13°C° 0 mm 5 mps 628 mmHg 47%
    05:00 +13°C° 0 mm 5 mps 628 mmHg 48%
    06:00 +13°C° 0 mm 5 mps 628 mmHg 49%
    07:00 +15°C° 0 mm 5 mps 629 mmHg 45%
    08:00 +16°C° 0 mm 6 mps 630 mmHg 42%
    09:00 +18°C° 0 mm 7 mps 631 mmHg 38%
    10:00 +19°C° 0.2 mm 6 mps 631 mmHg 39%
    11:00 +19°C° 0.2 mm 6 mps 631 mmHg 40%
    12:00 +20°C° 0.2 mm 5 mps 631 mmHg 40%
    13:00 +17°C° 0.4 mm 5 mps 631 mmHg 48%
    14:00 +15°C° 0.4 mm 5 mps 631 mmHg 55%
    15:00 +13°C° 0.4 mm 5 mps 630 mmHg 63%
    16:00 +11°C° 0.3 mm 4 mps 630 mmHg 66%
    17:00 +10°C° 0.3 mm 4 mps 630 mmHg 70%
    18:00 +8°C° 0.3 mm 3 mps 630 mmHg 73%
    19:00 +7°C° 0 mm 3 mps 631 mmHg 75%
    20:00 +5°C° 0 mm 3 mps 631 mmHg 76%
    21:00 +4°C° 0 mm 3 mps 632 mmHg 77%
    22:00 +5°C° 0 mm 2 mps 632 mmHg 77%
    23:00 +4°C° 0 mm 2 mps 632 mmHg 76%

    Day after tomorrow, 25 April, Tuesday

    Time Temperature Precipitation Wind Pressure Humidity
    00:00 +4°C° 0 mm 2 mps 632 mmHg 76%
    01:00 +5°C° 0 mm 1 mps 632 mmHg 76%
    02:00 +4°C° 0 mm 1 mps 632 mmHg 77%
    03:00 +4°C° 0 mm 1 mps 632 mmHg 77%
    04:00 +5°C° 0 mm 1 mps 633 mmHg 76%
    05:00 +5°C° 0 mm 1 mps 633 mmHg 74%
    06:00 +5°C° 0 mm 1 mps 634 mmHg 73%
    07:00 +6°C° 0 mm 2 mps 634 mmHg 67%
    08:00 +8°C° 0 mm 2 mps 635 mmHg 61%
    09:00 +9°C° 0 mm 2 mps 636 mmHg 54%
    10:00 +10°C° 0 mm 3 mps 636 mmHg 53%
    11:00 +11°C° 0 mm 3 mps 636 mmHg 51%
    12:00 +11°C° 0 mm 4 mps 636 mmHg 50%
    13:00 +11°C° 0 mm 4 mps 636 mmHg 54%
    14:00 +10°C° 0 mm 4 mps 635 mmHg 59%
    15:00 +10°C° 0 mm 4 mps 635 mmHg 63%
    16:00 +7°C° 0 mm 4 mps 635 mmHg 70%
    17:00 +6°C° 0 mm 5 mps 635 mmHg 76%
    18:00 +3°C° 0 mm 5 mps 635 mmHg 82%
    19:00 +3°C° 0.1 mm 5 mps 636 mmHg 83%
    20:00 +2°C° 0.1 mm 5 mps 637 mmHg 85%
    21:00 +3°C° 0.1 mm 4 mps 638 mmHg 86%
    22:00 +1°C° 0.2 mm 4 mps 638 mmHg 87%
    23:00 +1°C° 0.2 mm 4 mps 638 mmHg 87%

    26 April, Wednesday

    Time Temperature Precipitation Wind Pressure Humidity
    00:00 +1°C° 0.2 mm 4 mps 638 mmHg 88%
    01:00 +1°C° 0.1 mm 4 mps 638 mmHg 88%
    02:00 0°C° 0.1 mm 4 mps 639 mmHg 88%
    03:00 0°C° 0.1 mm 4 mps 639 mmHg 88%
    04:00 0°C° 0.2 mm 4 mps 639 mmHg 88%
    05:00 +1°C° 0.2 mm 3 mps 640 mmHg 88%
    06:00 0°C° 0.2 mm 3 mps 640 mmHg 87%
    07:00 +1°C° 0.1 mm 3 mps 640 mmHg 85%
    08:00 +1°C° 0.1 mm 4 mps 641 mmHg 82%
    09:00 +1°C° 0.1 mm 4 mps 641 mmHg 80%
    10:00 +3°C° 0.1 mm 4 mps 641 mmHg 78%
    11:00 +3°C° 0.1 mm 4 mps 641 mmHg 76%
    12:00 +3°C° 0.1 mm 4 mps 641 mmHg 74%
    13:00 +4°C° 0 mm 4 mps 640 mmHg 74%
    14:00 +4°C° 0 mm 4 mps 640 mmHg 74%
    15:00 +4°C° 0 mm 3 mps 640 mmHg 74%
    16:00 +3°C° 0 mm 3 mps 640 mmHg 76%
    17:00 +3°C° 0 mm 3 mps 640 mmHg 79%
    18:00 +3°C° 0 mm 2 mps 640 mmHg 81%
    19:00 +3°C° 0 mm 2 mps 640 mmHg 84%
    20:00 +2°C° 0 mm 2 mps 640 mmHg 86%
    21:00 +2°C° 0 mm 1 mps 640 mmHg 88%
    22:00 +2°C° 0 mm 1 mps 640 mmHg 88%
    23:00 +2°C° 0 mm 1 mps 639 mmHg 89%

    27 April, Thursday

    Time Temperature Precipitation Wind Pressure Humidity
    00:00 +2°C° 0 mm 1 mps 639 mmHg 89%
    01:00 +1°C° 0 mm 1 mps 639 mmHg 90%
    02:00 0°C° 0 mm 1 mps 638 mmHg 91%
    03:00 0°C° 0 mm 1 mps 638 mmHg 91%
    04:00 +1°C° 0 mm 1 mps 638 mmHg 90%
    05:00 +2°C° 0 mm 1 mps 639 mmHg 89%
    06:00 +2°C° 0 mm 1 mps 639 mmHg 88%
    07:00 +3°C° 0 mm 2 mps 639 mmHg 84%
    08:00 +4°C° 0 mm 2 mps 639 mmHg 79%
    09:00 +5°C° 0 mm 2 mps 640 mmHg 75%
    10:00 +6°C° 0 mm 2 mps 639 mmHg 73%
    11:00 +7°C° 0 mm 3 mps 639 mmHg 71%
    12:00 +7°C° 0 mm 3 mps 639 mmHg 69%
    13:00 +7°C° 0 mm 3 mps 639 mmHg 70%
    14:00 +8°C° 0 mm 3 mps 638 mmHg 70%
    15:00 +8°C° 0 mm 3 mps 638 mmHg 71%
    16:00 +7°C° 0 mm 3 mps 638 mmHg 75%
    17:00 +5°C° 0 mm 3 mps 638 mmHg 78%
    18:00 +6°C° 0 mm 2 mps 638 mmHg 82%
    19:00 +5°C° 0 mm 2 mps 638 mmHg 85%
    20:00 +5°C° 0 mm 1 mps 638 mmHg 87%
    21:00 +4°C° 0 mm 1 mps 638 mmHg 89%
    22:00 +4°C° 0 mm 1 mps 638 mmHg 90%
    23:00 +3°C° 0 mm 1 mps 637 mmHg 90%

    28 April, Friday

    Time Temperature Precipitation Wind Pressure Humidity
    00:00 +3°C° 0 mm 1 mps 637 mmHg 90%
    01:00 +3°C° 0 mm 1 mps 637 mmHg 91%
    02:00 +2°C° 0 mm 1 mps 637 mmHg 92%
    03:00 +2°C° 0 mm 1 mps 637 mmHg 92%
    04:00 +3°C° 0 mm 1 mps 637 mmHg 92%
    05:00 +4°C° 0 mm 1 mps 637 mmHg 91%
    06:00 +5°C° 0 mm 1 mps 638 mmHg 90%
    07:00 +6°C° 0 mm 1 mps 638 mmHg 85%
    08:00 +7°C° 0 mm 2 mps 638 mmHg 80%
    09:00 +8°C° 0 mm 2 mps 638 mmHg 74%
    10:00 +9°C° 0 mm 2 mps 638 mmHg 72%
    11:00 +9°C° 0 mm 3 mps 638 mmHg 70%
    12:00 +10°C° 0 mm 3 mps 638 mmHg 68%
    13:00 +10°C° 0 mm 3 mps 637 mmHg 69%
    14:00 +11°C° 0 mm 3 mps 637 mmHg 69%
    15:00 +11°C° 0 mm 3 mps 637 mmHg 69%
    16:00 +10°C° 0 mm 2 mps 636 mmHg 73%
    17:00 +9°C° 0 mm 2 mps 636 mmHg 77%
    18:00 +8°C° 0 mm 2 mps 636 mmHg 82%
    19:00 +9°C° 0 mm 1 mps 636 mmHg 84%
    20:00 +8°C° 0 mm 1 mps 636 mmHg 86%
    21:00 +7°C° 0 mm 1 mps 636 mmHg 87%
    22:00 +7°C° 0.1 mm 1 mps 636 mmHg 88%
    23:00 +7°C° 0.1 mm 1 mps 635 mmHg 88%
    Show more